Location: Piolenc
(44.1794°N, 4.7641°E)
Time: 03:40:25
(UTC+00:00)

USA 307 - Pass Details

Date: 27 January 2021
Orbit: 565 x 580 km, 54.0° (Epoch: 26 February)

Event Time Altitude Azimuth Distance (km) Brightness Sun altitude
Exits shadow 06:20:05 10° 282° (WNW) 1,843 4.8 -8.1°
Maximum altitude 06:23:43 28° 343° (NNW) 1,073 4.0 -7.5°
Drops below altitude 10° 06:27:24 10° 43° (NE) 1,866 5.9 -6.9°
Sets 06:29:54 0° 55° (NE) 2,766 7.0 -6.5°
